Location: Arbon
(43.0005°N, 0.7472°E)
Time: 08:46:36
(UTC+00:00)

Vanguard 2 Rocket - Pass Details

Date: 01 December 2020
Orbit: 554 x 3326 km, 32.9° (Epoch: 28 January)

Event Time Altitude Azimuth Distance (km) Brightness Sun altitude
Rises 10:58:59 0° 271° (W) 7,314 11.4 24.2°
Reaches altitude 10° 11:04:15 10° 267° (W) 6,215 11.1 24.4°
Maximum altitude 11:22:11 51° 200° (SSW) 3,059 10.7 24.9°
Drops below altitude 10° 11:33:53 10° 128° (SE) 4,185 11.0 25.0°
Sets 11:36:41 0° 123° (ESE) 4,860 11.1 25.0°
